Location: Hertford
(51.8000°N, 0.0667°W)
Time: 15:30:15
(UTC+00:00)

Cosmos 2016 Rocket - Pass Details

Date: 18 September 2020
Orbit: 946 x 1001 km, 83.0° (Epoch: 27 October)

Event Time Altitude Azimuth Distance (km) Brightness Sun altitude
Rises 18:29:17 0° 195° (SSW) 3,696 7.1 -4.3°
Reaches altitude 10° 18:31:50 10° 198° (SSW) 2,745 6.5 -4.6°
Maximum altitude 18:38:07 71° 282° (WNW) 1,037 4.5 -5.6°
Drops below altitude 10° 18:44:22 10° 7° (N) 2,725 6.4 -6.6°
Sets 18:46:53 0° 10° (N) 3,668 7.0 -6.9°
